Time,TemperatureF,DewpointF,PressureIn,WindDirection,WindDirectionDegrees,WindSpeedMPH,WindSpeedGustMPH,Humidity,HourlyPrecipIn,Conditions,Clouds,dailyrainin,SoftwareType,DateUTC
2013-07-27 00:01:00,80.5,77.4,30.03,NE,36,0.0,0.0,90,0.00,,,0.00,WUHU216PEETBRO,2013-07-27 04:01:00,
2013-07-27 00:02:00,80.5,77.4,30.03,NE,36,0.0,0.0,90,0.00,,,0.00,WUHU216PEETBRO,2013-07-27 04:02:00,
2013-07-27 00:07:00,80.4,77.3,30.03,NE,36,0.0,0.0,90,0.00,,,0.00,WUHU216PEETBRO,2013-07-27 04:07:00,
2013-07-27 00:11:00,80.3,77.1,30.03,NE,36,0.0,0.0,90,0.00,,,0.00,WUHU216PEETBRO,2013-07-27 04:11:00,
2013-07-27 00:17:00,80.5,77.3,30.03,NE,36,0.0,0.0,90,0.00,,,0.00,WUHU216PEETBRO,2013-07-27 04:17:00,
2013-07-27 00:22:00,80.5,77.2,30.03,NE,36,0.0,0.0,90,0.00,,,0.00,WUHU216PEETBRO,2013-07-27 04:22:00,
2013-07-27 00:27:00,80.4,77.1,30.03,NE,36,0.0,0.0,90,0.00,,,0.00,WUHU216PEETBRO,2013-07-27 04:27:00,
2013-07-27 00:32:00,80.5,77.2,30.03,NE,36,0.0,0.0,90,0.00,,,0.00,WUHU216PEETBRO,2013-07-27 04:32:00,
2013-07-27 00:37:00,80.4,77.1,30.03,NE,36,0.0,0.0,90,0.00,,,0.00,WUHU216PEETBRO,2013-07-27 04:37:00,
2013-07-27 00:42:00,80.4,77.1,30.02,NE,36,0.0,0.0,90,0.00,,,0.00,WUHU216PEETBRO,2013-07-27 04:42:00,
2013-07-27 00:47:00,80.3,77.0,30.02,NE,36,0.0,0.0,90,0.00,,,0.00,WUHU216PEETBRO,2013-07-27 04:47:00,
2013-07-27 00:52:00,80.3,77.1,30.02,NE,36,0.0,0.0,90,0.00,,,0.00,WUHU216PEETBRO,2013-07-27 04:52:00,
2013-07-27 00:57:00,80.2,77.0,30.02,NE,36,0.0,0.0,90,0.00,,,0.00,WUHU216PEETBRO,2013-07-27 04:57:00,
2013-07-27 01:02:00,80.1,76.9,30.02,NE,36,0.0,0.0,90,0.00,,,0.00,WUHU216PEETBRO,2013-07-27 05:02:00,
2013-07-27 01:07:00,80.0,76.9,30.02,NE,36,0.0,0.0,90,0.00,,,0.00,WUHU216PEETBRO,2013-07-27 05:07:00,
2013-07-27 01:12:00,79.9,76.8,30.02,NE,36,0.0,0.0,90,0.00,,,0.00,WUHU216PEETBRO,2013-07-27 05:12:00,
2013-07-27 01:17:00,79.7,76.6,30.02,NE,36,0.0,0.0,90,0.00,,,0.00,WUHU216PEETBRO,2013-07-27 05:17:00,
2013-07-27 01:22:00,79.7,76.7,30.02,NE,36,0.0,0.0,91,0.00,,,0.00,WUHU216PEETBRO,2013-07-27 05:22:00,
2013-07-27 01:27:00,79.4,76.4,30.02,NE,36,0.0,0.0,91,0.00,,,0.00,WUHU216PEETBRO,2013-07-27 05:27:00,
2013-07-27 01:32:00,79.4,76.5,30.02,NE,36,0.0,0.0,91,0.00,,,0.00,WUHU216PEETBRO,2013-07-27 05:32:00,
2013-07-27 01:37:00,79.3,76.5,30.02,NE,36,0.0,0.0,91,0.00,,,0.00,WUHU216PEETBRO,2013-07-27 05:37:00,
2013-07-27 01:42:00,79.3,76.5,30.02,NE,36,0.0,0.0,91,0.00,,,0.00,WUHU216PEETBRO,2013-07-27 05:42:00,
2013-07-27 01:47:00,79.3,76.6,30.02,NE,36,0.0,0.0,91,0.00,,,0.00,WUHU216PEETBRO,2013-07-27 05:47:00,
2013-07-27 01:52:00,79.3,76.7,30.01,NE,36,0.0,0.0,92,0.00,,,0.00,WUHU216PEETBRO,2013-07-27 05:52:00,
2013-07-27 01:57:00,79.3,76.7,30.01,NE,36,0.0,0.0,92,0.00,,,0.00,WUHU216PEETBRO,2013-07-27 05:57:00,
2013-07-27 02:02:00,79.2,76.6,30.01,NE,36,0.0,0.0,92,0.00,,,0.00,WUHU216PEETBRO,2013-07-27 06:02:00,
2013-07-27 02:07:00,79.1,76.6,30.01,NE,36,0.0,0.0,92,0.00,,,0.00,WUHU216PEETBRO,2013-07-27 06:07:00,
2013-07-27 02:12:00,79.1,76.6,30.01,NE,36,0.0,0.0,92,0.00,,,0.00,WUHU216PEETBRO,2013-07-27 06:12:00,
2013-07-27 02:17:00,79.0,76.5,30.01,NE,36,0.0,0.0,92,0.00,,,0.00,WUHU216PEETBRO,2013-07-27 06:17:00,
2013-07-27 02:22:00,78.8,76.3,30.01,NE,36,0.0,0.0,92,0.00,,,0.00,WUHU216PEETBRO,2013-07-27 06:22:00,
2013-07-27 02:27:00,78.8,76.4,30.00,NE,36,0.0,0.0,93,0.00,,,0.00,WUHU216PEETBRO,2013-07-27 06:27:00,
2013-07-27 02:32:00,78.8,76.5,30.00,NE,36,0.0,0.0,93,0.00,,,0.00,WUHU216PEETBRO,2013-07-27 06:32:00,
2013-07-27 02:37:00,78.7,76.4,30.00,NE,36,0.0,0.0,93,0.00,,,0.00,WUHU216PEETBRO,2013-07-27 06:37:00,
2013-07-27 02:42:00,78.7,76.4,30.00,NE,36,0.0,0.0,93,0.00,,,0.00,WUHU216PEETBRO,2013-07-27 06:42:00,
2013-07-27 02:47:00,78.4,76.2,29.99,NE,36,0.0,0.0,93,0.00,,,0.00,WUHU216PEETBRO,2013-07-27 06:47:00,
2013-07-27 02:52:00,78.5,76.4,29.99,NE,36,0.0,0.0,93,0.00,,,0.00,WUHU216PEETBRO,2013-07-27 06:52:00,
2013-07-27 02:57:00,78.5,76.4,29.99,NE,36,0.0,0.0,93,0.00,,,0.00,WUHU216PEETBRO,2013-07-27 06:57:00,
2013-07-27 03:02:00,78.5,76.5,29.99,NE,36,0.0,0.0,94,0.00,,,0.00,WUHU216PEETBRO,2013-07-27 07:02:00,
2013-07-27 03:07:00,78.5,76.5,29.98,NE,36,0.0,0.0,94,0.00,,,0.00,WUHU216PEETBRO,2013-07-27 07:07:00,
2013-07-27 03:12:00,78.3,76.3,29.98,NE,36,0.0,0.0,94,0.00,,,0.00,WUHU216PEETBRO,2013-07-27 07:12:00,
2013-07-27 03:17:00,78.3,76.4,29.98,NE,36,0.0,0.0,94,0.00,,,0.00,WUHU216PEETBRO,2013-07-27 07:17:00,
2013-07-27 03:22:00,78.3,76.4,29.98,NE,36,0.0,0.0,94,0.00,,,0.00,WUHU216PEETBRO,2013-07-27 07:22:00,
2013-07-27 03:27:00,78.2,76.3,29.98,NE,36,0.0,0.0,94,0.00,,,0.00,WUHU216PEETBRO,2013-07-27 07:27:00,
2013-07-27 03:32:00,78.1,76.2,29.98,NE,36,0.0,0.0,94,0.00,,,0.00,WUHU216PEETBRO,2013-07-27 07:32:00,
2013-07-27 03:37:00,78.1,76.3,29.98,NE,36,0.0,0.0,94,0.00,,,0.00,WUHU216PEETBRO,2013-07-27 07:37:00,
2013-07-27 03:42:00,78.1,76.3,29.98,NE,36,0.0,0.0,94,0.00,,,0.00,WUHU216PEETBRO,2013-07-27 07:42:00,
2013-07-27 03:47:00,78.1,76.3,29.98,NE,36,0.0,0.0,94,0.00,,,0.00,WUHU216PEETBRO,2013-07-27 07:47:00,
2013-07-27 03:52:00,78.0,76.2,29.98,NE,36,0.0,0.0,94,0.00,,,0.00,WUHU216PEETBRO,2013-07-27 07:52:00,
2013-07-27 03:57:00,77.8,75.9,29.98,NE,36,0.0,0.0,94,0.00,,,0.00,WUHU216PEETBRO,2013-07-27 07:57:00,
2013-07-27 04:02:00,77.7,75.9,29.98,NE,36,0.0,0.0,94,0.00,,,0.00,WUHU216PEETBRO,2013-07-27 08:02:00,
2013-07-27 04:07:00,77.5,75.7,29.98,NE,36,0.0,0.0,94,0.00,,,0.00,WUHU216PEETBRO,2013-07-27 08:07:00,
2013-07-27 04:12:00,77.4,75.6,29.98,NE,36,0.0,0.0,94,0.00,,,0.00,WUHU216PEETBRO,2013-07-27 08:12:00,
2013-07-27 04:17:00,77.3,75.6,29.98,NE,36,0.0,0.0,95,0.00,,,0.00,WUHU216PEETBRO,2013-07-27 08:17:00,
2013-07-27 04:22:00,77.3,75.6,29.98,NE,36,0.0,0.0,95,0.00,,,0.00,WUHU216PEETBRO,2013-07-27 08:22:00,
2013-07-27 04:27:00,77.4,75.8,29.98,NE,36,0.0,0.0,95,0.00,,,0.00,WUHU216PEETBRO,2013-07-27 08:27:00,
2013-07-27 04:32:00,77.4,75.8,29.98,NE,36,0.0,0.0,95,0.00,,,0.00,WUHU216PEETBRO,2013-07-27 08:32:00,
2013-07-27 04:37:00,77.3,75.7,29.98,NE,36,0.0,0.0,95,0.00,,,0.00,WUHU216PEETBRO,2013-07-27 08:37:00,
2013-07-27 04:42:00,77.3,75.8,29.98,NE,36,0.0,0.0,95,0.00,,,0.00,WUHU216PEETBRO,2013-07-27 08:42:00,
2013-07-27 04:47:00,77.2,75.7,29.98,NE,36,0.0,0.0,95,0.00,,,0.00,WUHU216PEETBRO,2013-07-27 08:47:00,
2013-07-27 04:52:00,77.1,75.6,29.98,NE,36,0.0,0.0,95,0.00,,,0.00,WUHU216PEETBRO,2013-07-27 08:52:00,
2013-07-27 04:57:00,77.0,75.5,29.98,NE,36,0.0,0.0,95,0.00,,,0.00,WUHU216PEETBRO,2013-07-27 08:57:00,
2013-07-27 05:03:00,76.9,75.4,29.98,NE,36,0.0,0.0,95,0.00,,,0.00,WUHU216PEETBRO,2013-07-27 09:03:00,
2013-07-27 05:08:00,76.9,75.5,29.98,NE,36,0.0,0.0,96,0.00,,,0.00,WUHU216PEETBRO,2013-07-27 09:08:00,
2013-07-27 05:13:00,76.8,75.4,29.98,NE,36,0.0,0.0,96,0.00,,,0.00,WUHU216PEETBRO,2013-07-27 09:13:00,
2013-07-27 05:18:00,76.8,75.4,29.98,NE,36,0.0,0.0,96,0.00,,,0.00,WUHU216PEETBRO,2013-07-27 09:18:00,
2013-07-27 05:23:00,76.7,75.3,29.98,NE,36,0.0,0.0,96,0.00,,,0.00,WUHU216PEETBRO,2013-07-27 09:23:00,
2013-07-27 05:28:00,76.6,75.3,29.98,NE,36,0.0,0.0,96,0.00,,,0.00,WUHU216PEETBRO,2013-07-27 09:28:00,
2013-07-27 05:33:00,76.7,75.4,29.98,NE,36,0.0,0.0,96,0.00,,,0.00,WUHU216PEETBRO,2013-07-27 09:33:00,
2013-07-27 05:38:00,76.7,75.4,29.98,NE,36,0.0,0.0,96,0.00,,,0.00,WUHU216PEETBRO,2013-07-27 09:38:00,
2013-07-27 05:43:00,76.7,75.4,29.99,NE,36,0.0,0.0,96,0.00,,,0.00,WUHU216PEETBRO,2013-07-27 09:43:00,
2013-07-27 05:48:00,76.7,75.4,29.99,NE,36,0.0,0.0,96,0.00,,,0.00,WUHU216PEETBRO,2013-07-27 09:48:00,
2013-07-27 05:53:00,76.8,75.6,29.99,NE,36,0.0,0.0,96,0.00,,,0.00,WUHU216PEETBRO,2013-07-27 09:53:00,
2013-07-27 05:58:00,76.8,75.6,29.99,NE,36,0.0,0.0,96,0.00,,,0.00,WUHU216PEETBRO,2013-07-27 09:58:00,
2013-07-27 06:03:00,76.8,75.6,29.99,NE,36,0.0,0.0,96,0.00,,,0.00,WUHU216PEETBRO,2013-07-27 10:03:00,
2013-07-27 06:08:00,76.7,75.5,29.99,NE,36,0.0,0.0,96,0.00,,,0.00,WUHU216PEETBRO,2013-07-27 10:08:00,
2013-07-27 06:13:00,76.7,75.5,30.00,NE,36,0.0,0.0,96,0.00,,,0.00,WUHU216PEETBRO,2013-07-27 10:13:00,
2013-07-27 06:18:00,76.8,75.7,30.00,NE,36,0.0,0.0,97,0.00,,,0.00,WUHU216PEETBRO,2013-07-27 10:18:00,
2013-07-27 06:23:00,77.0,75.9,30.00,NE,36,0.0,0.0,97,0.00,,,0.00,WUHU216PEETBRO,2013-07-27 10:23:00,
2013-07-27 06:28:00,77.0,75.9,30.00,NE,36,0.0,0.0,97,0.00,,,0.00,WUHU216PEETBRO,2013-07-27 10:28:00,
2013-07-27 06:33:00,77.0,75.9,30.00,NE,36,0.0,0.0,97,0.00,,,0.00,WUHU216PEETBRO,2013-07-27 10:33:00,
2013-07-27 06:38:00,76.9,75.8,30.00,NE,36,0.0,0.0,97,0.00,,,0.00,WUHU216PEETBRO,2013-07-27 10:38:00,
2013-07-27 06:43:00,76.9,75.8,30.00,NE,36,0.0,0.0,97,0.00,,,0.00,WUHU216PEETBRO,2013-07-27 10:43:00,
2013-07-27 06:48:00,76.9,75.8,30.00,NE,36,0.0,0.0,97,0.00,,,0.00,WUHU216PEETBRO,2013-07-27 10:48:00,
2013-07-27 06:53:00,76.8,75.8,30.00,NE,36,0.0,0.0,97,0.00,,,0.00,WUHU216PEETBRO,2013-07-27 10:53:00,
2013-07-27 06:58:00,76.8,75.8,30.01,NE,36,0.0,0.0,97,0.00,,,0.00,WUHU216PEETBRO,2013-07-27 10:58:00,
2013-07-27 07:02:00,76.9,75.9,30.01,NE,36,0.0,0.0,97,0.00,,,0.00,WUHU216PEETBRO,2013-07-27 11:02:00,
2013-07-27 07:07:00,76.9,75.9,30.01,NE,36,0.0,0.0,97,0.00,,,0.00,WUHU216PEETBRO,2013-07-27 11:07:00,
2013-07-27 07:13:00,76.9,75.9,30.01,NE,36,0.0,0.0,97,0.00,,,0.00,WUHU216PEETBRO,2013-07-27 11:13:00,
2013-07-27 07:17:00,77.0,76.0,30.01,NE,36,0.0,0.0,97,0.00,,,0.00,WUHU216PEETBRO,2013-07-27 11:17:00,
2013-07-27 07:23:00,77.0,76.0,30.01,NE,36,0.0,0.0,97,0.00,,,0.00,WUHU216PEETBRO,2013-07-27 11:23:00,
2013-07-27 07:28:00,77.0,76.0,30.01,NE,36,0.0,0.0,97,0.00,,,0.00,WUHU216PEETBRO,2013-07-27 11:28:00,
2013-07-27 07:33:00,76.9,75.9,30.01,NE,36,0.0,0.0,97,0.00,,,0.00,WUHU216PEETBRO,2013-07-27 11:33:00,
2013-07-27 07:38:00,76.8,75.9,30.01,NE,36,0.0,0.0,97,0.00,,,0.00,WUHU216PEETBRO,2013-07-27 11:38:00,
2013-07-27 07:43:00,76.9,76.0,30.02,NE,36,0.0,0.0,97,0.00,,,0.00,WUHU216PEETBRO,2013-07-27 11:43:00,
2013-07-27 07:48:00,76.8,75.9,30.01,NE,36,0.0,0.0,97,0.00,,,0.00,WUHU216PEETBRO,2013-07-27 11:48:00,
2013-07-27 07:53:00,76.9,76.1,30.02,NE,36,0.0,0.0,97,0.00,,,0.00,WUHU216PEETBRO,2013-07-27 11:53:00,
2013-07-27 07:58:00,77.0,76.2,30.02,NE,36,0.0,0.0,98,0.00,,,0.00,WUHU216PEETBRO,2013-07-27 11:58:00,
2013-07-27 08:03:00,77.1,76.3,30.02,NE,36,0.0,0.0,98,0.00,,,0.00,WUHU216PEETBRO,2013-07-27 12:03:00,
2013-07-27 08:08:00,77.1,76.4,30.02,NE,36,0.0,0.0,98,0.00,,,0.00,WUHU216PEETBRO,2013-07-27 12:08:00,
2013-07-27 08:13:00,77.3,76.6,30.02,NE,36,0.0,0.0,98,0.00,,,0.00,WUHU216PEETBRO,2013-07-27 12:13:00,
2013-07-27 08:18:00,77.4,76.8,30.02,NE,36,0.0,0.0,98,0.00,,,0.00,WUHU216PEETBRO,2013-07-27 12:18:00,
2013-07-27 08:23:00,77.7,77.1,30.02,NE,36,0.0,0.0,98,0.00,,,0.00,WUHU216PEETBRO,2013-07-27 12:23:00,
2013-07-27 08:28:00,77.8,77.2,30.02,NE,36,0.0,0.0,98,0.00,,,0.00,WUHU216PEETBRO,2013-07-27 12:28:00,
2013-07-27 08:33:00,77.8,77.2,30.02,NE,36,0.0,0.0,98,0.00,,,0.00,WUHU216PEETBRO,2013-07-27 12:33:00,
2013-07-27 08:38:00,77.8,77.3,30.02,NE,36,0.0,0.0,99,0.00,,,0.00,WUHU216PEETBRO,2013-07-27 12:38:00,
2013-07-27 08:43:00,78.0,77.6,30.02,NE,36,0.0,0.0,99,0.00,,,0.00,WUHU216PEETBRO,2013-07-27 12:43:00,
2013-07-27 08:48:00,78.1,77.7,30.02,NE,36,0.0,0.0,99,0.00,,,0.00,WUHU216PEETBRO,2013-07-27 12:48:00,
2013-07-27 08:53:00,78.3,77.9,30.02,NE,36,0.0,0.0,99,0.00,,,0.00,WUHU216PEETBRO,2013-07-27 12:53:00,
2013-07-27 08:58:00,78.7,78.3,30.02,NE,36,0.0,0.0,99,0.00,,,0.00,WUHU216PEETBRO,2013-07-27 12:58:00,
2013-07-27 09:03:00,78.5,78.1,30.02,NE,36,0.0,0.0,99,0.00,,,0.00,WUHU216PEETBRO,2013-07-27 13:03:00,
2013-07-27 09:08:00,78.7,78.3,30.02,NE,36,0.0,0.0,99,0.00,,,0.00,WUHU216PEETBRO,2013-07-27 13:08:00,
2013-07-27 09:12:00,78.8,78.3,30.02,NE,36,0.0,0.0,99,0.00,,,0.00,WUHU216PEETBRO,2013-07-27 13:12:00,
2013-07-27 09:18:00,79.0,78.4,30.02,NE,36,0.0,0.0,98,0.00,,,0.00,WUHU216PEETBRO,2013-07-27 13:18:00,
2013-07-27 09:23:00,79.7,79.0,30.02,NE,36,0.0,0.0,98,0.00,,,0.00,WUHU216PEETBRO,2013-07-27 13:23:00,
2013-07-27 09:28:00,80.1,79.2,30.02,NE,36,0.0,3.5,97,0.00,,,0.00,WUHU216PEETBRO,2013-07-27 13:28:00,
2013-07-27 09:33:00,80.3,78.7,30.02,SW,231,7.4,7.4,95,0.00,,,0.00,WUHU216PEETBRO,2013-07-27 13:33:00,
2013-07-27 09:38:00,80.5,78.5,30.02,SW,214,0.0,7.4,94,0.00,,,0.00,WUHU216PEETBRO,2013-07-27 13:38:00,
2013-07-27 09:43:00,80.7,78.3,30.02,SW,232,0.0,7.4,93,0.00,,,0.00,WUHU216PEETBRO,2013-07-27 13:43:00,
2013-07-27 09:48:00,81.4,77.4,30.02,SSW,210,0.0,5.2,88,0.00,,,0.00,WUHU216PEETBRO,2013-07-27 13:48:00,
2013-07-27 09:53:00,82.2,78.5,30.02,SSW,210,0.0,3.2,89,0.00,,,0.00,WUHU216PEETBRO,2013-07-27 13:53:00,
2013-07-27 09:58:00,83.0,76.1,30.02,WSW,245,0.0,6.0,80,0.00,,,0.00,WUHU216PEETBRO,2013-07-27 13:58:00,
2013-07-27 10:03:00,83.5,76.5,30.02,SW,217,2.6,6.0,79,0.00,,,0.00,WUHU216PEETBRO,2013-07-27 14:03:00,
2013-07-27 10:08:00,84.0,75.0,30.02,SSW,211,4.3,4.5,74,0.00,,,0.00,WUHU216PEETBRO,2013-07-27 14:08:00,
2013-07-27 10:13:00,84.3,74.4,30.02,SW,227,6.2,6.8,72,0.00,,,0.00,WUHU216PEETBRO,2013-07-27 14:13:00,
2013-07-27 10:18:00,84.5,75.0,30.02,SSW,204,0.0,6.8,73,0.00,,,0.00,WUHU216PEETBRO,2013-07-27 14:18:00,
2013-07-27 10:23:00,85.3,75.8,30.02,NW,309,5.5,6.0,73,0.00,,,0.00,WUHU216PEETBRO,2013-07-27 14:23:00,
2013-07-27 10:28:00,86.0,75.5,30.02,NNW,347,2.9,7.1,70,0.00,,,0.00,WUHU216PEETBRO,2013-07-27 14:28:00,
2013-07-27 10:32:00,86.6,75.3,30.02,West,263,0.0,8.3,69,0.00,,,0.00,WUHU216PEETBRO,2013-07-27 14:32:00,
2013-07-27 10:38:00,86.6,75.5,30.02,SW,224,0.0,8.3,69,0.00,,,0.00,WUHU216PEETBRO,2013-07-27 14:38:00,
2013-07-27 10:43:00,86.5,75.8,30.02,WNW,303,0.0,8.0,70,0.00,,,0.00,WUHU216PEETBRO,2013-07-27 14:43:00,
2013-07-27 10:47:00,87.4,75.9,30.02,West,269,0.0,6.5,68,0.00,,,0.00,WUHU216PEETBRO,2013-07-27 14:47:00,
2013-07-27 10:52:00,88.3,75.9,30.01,SW,214,0.0,6.1,66,0.00,,,0.00,WUHU216PEETBRO,2013-07-27 14:52:00,
2013-07-27 10:57:00,87.6,75.4,30.02,West,265,4.5,7.8,67,0.00,,,0.00,WUHU216PEETBRO,2013-07-27 14:57:00,
2013-07-27 11:02:00,86.7,75.4,30.02,WSW,237,5.2,7.8,69,0.00,,,0.00,WUHU216PEETBRO,2013-07-27 15:02:00,
2013-07-27 11:07:00,86.5,75.3,30.01,SW,217,0.0,5.2,69,0.00,,,0.00,WUHU216PEETBRO,2013-07-27 15:07:00,
2013-07-27 11:12:00,86.7,75.6,30.01,SW,230,0.0,8.5,69,0.00,,,0.00,WUHU216PEETBRO,2013-07-27 15:12:00,
2013-07-27 11:18:00,86.9,75.1,30.01,NNW,330,5.2,11.1,68,0.00,,,0.00,WUHU216PEETBRO,2013-07-27 15:18:00,
2013-07-27 11:23:00,87.4,74.4,30.02,WNW,286,5.8,11.1,65,0.00,,,0.00,WUHU216PEETBRO,2013-07-27 15:23:00,
2013-07-27 11:28:00,88.4,74.4,30.02,WSW,248,0.0,8.5,63,0.00,,,0.00,WUHU216PEETBRO,2013-07-27 15:28:00,
2013-07-27 11:33:00,89.2,74.5,30.02,WSW,254,6.9,7.0,61,0.00,,,0.00,WUHU216PEETBRO,2013-07-27 15:33:00,
2013-07-27 11:38:00,88.9,74.3,30.02,West,273,4.2,7.5,62,0.00,,,0.00,WUHU216PEETBRO,2013-07-27 15:38:00,
2013-07-27 11:43:00,88.9,74.8,30.02,SSW,197,0.0,7.6,63,0.00,,,0.00,WUHU216PEETBRO,2013-07-27 15:43:00,
2013-07-27 11:48:00,88.8,74.6,30.02,WSW,252,5.4,7.6,62,0.00,,,0.00,WUHU216PEETBRO,2013-07-27 15:48:00,
2013-07-27 11:53:00,88.6,74.7,30.02,WNW,282,3.4,7.9,63,0.00,,,0.00,WUHU216PEETBRO,2013-07-27 15:53:00,
2013-07-27 11:58:00,88.9,73.9,30.02,West,273,0.0,7.9,61,0.00,,,0.00,WUHU216PEETBRO,2013-07-27 15:58:00,
2013-07-27 12:03:00,89.5,74.6,30.01,NE,38,3.2,5.9,61,0.00,,,0.00,WUHU216PEETBRO,2013-07-27 16:03:00,
2013-07-27 12:08:00,90.0,74.4,30.01,WSW,252,0.0,7.3,60,0.00,,,0.00,WUHU216PEETBRO,2013-07-27 16:08:00,
2013-07-27 12:13:00,90.2,74.2,30.01,NW,326,0.0,7.3,59,0.00,,,0.00,WUHU216PEETBRO,2013-07-27 16:13:00,
2013-07-27 12:18:00,90.8,73.7,30.01,NNW,337,5.8,7.9,57,0.00,,,0.00,WUHU216PEETBRO,2013-07-27 16:18:00,
2013-07-27 12:23:00,92.0,73.5,30.01,NNW,335,4.3,7.9,55,0.00,,,0.00,WUHU216PEETBRO,2013-07-27 16:23:00,
2013-07-27 12:28:00,93.3,73.2,30.01,WNW,290,6.5,6.9,52,0.00,,,0.00,WUHU216PEETBRO,2013-07-27 16:28:00,
2013-07-27 12:33:00,93.4,73.2,30.01,WNW,295,6.5,8.8,52,0.00,,,0.00,WUHU216PEETBRO,2013-07-27 16:33:00,
2013-07-27 12:38:00,93.1,72.8,30.00,SSW,199,0.0,8.8,52,0.00,,,0.00,WUHU216PEETBRO,2013-07-27 16:38:00,
2013-07-27 12:43:00,93.4,73.1,30.00,NNW,347,5.5,7.8,52,0.00,,,0.00,WUHU216PEETBRO,2013-07-27 16:43:00,
2013-07-27 12:48:00,93.8,72.5,30.00,North,350,6.3,7.8,50,0.00,,,0.00,WUHU216PEETBRO,2013-07-27 16:48:00,
2013-07-27 12:53:00,93.5,72.5,30.00,NW,323,0.0,7.5,50,0.00,,,0.00,WUHU216PEETBRO,2013-07-27 16:53:00,
2013-07-27 12:58:00,92.9,72.4,30.00,NNW,331,6.1,6.8,51,0.00,,,0.00,WUHU216PEETBRO,2013-07-27 16:58:00,
2013-07-27 13:03:00,93.3,72.3,29.99,NE,47,0.0,6.9,50,0.00,,,0.00,WUHU216PEETBRO,2013-07-27 17:03:00,
2013-07-27 13:08:00,93.5,72.5,29.99,NE,47,0.0,6.9,50,0.00,,,0.00,WUHU216PEETBRO,2013-07-27 17:08:00,
2013-07-27 13:13:00,93.2,72.7,29.99,WSW,242,2.9,4.8,51,0.00,,,0.00,WUHU216PEETBRO,2013-07-27 17:13:00,
2013-07-27 13:18:00,93.3,71.9,29.99,NE,35,0.0,5.9,50,0.00,,,0.00,WUHU216PEETBRO,2013-07-27 17:18:00,
2013-07-27 13:23:00,93.9,72.7,29.99,West,272,0.0,7.9,50,0.00,,,0.00,WUHU216PEETBRO,2013-07-27 17:23:00,
2013-07-27 13:28:00,92.9,72.6,29.99,West,276,0.0,7.9,51,0.00,,,0.00,WUHU216PEETBRO,2013-07-27 17:28:00,
2013-07-27 13:33:00,92.6,72.3,29.99,WSW,252,3.2,7.6,51,0.00,,,0.00,WUHU216PEETBRO,2013-07-27 17:33:00,
2013-07-27 13:38:00,92.2,72.5,29.98,NW,324,0.0,7.6,52,0.00,,,0.00,WUHU216PEETBRO,2013-07-27 17:38:00,
2013-07-27 13:43:00,93.3,72.3,29.98,NNE,31,0.0,9.1,50,0.00,,,0.00,WUHU216PEETBRO,2013-07-27 17:43:00,
2013-07-27 13:48:00,94.7,71.9,29.98,NNE,14,0.0,9.1,48,0.00,,,0.00,WUHU216PEETBRO,2013-07-27 17:48:00,
2013-07-27 13:53:00,95.2,71.8,29.98,NNE,14,0.0,5.0,47,0.00,,,0.00,WUHU216PEETBRO,2013-07-27 17:53:00,
2013-07-27 13:58:00,93.9,72.5,29.97,SW,223,6.8,8.5,50,0.00,,,0.00,WUHU216PEETBRO,2013-07-27 17:58:00,
2013-07-27 14:03:00,92.7,71.7,29.97,South,169,0.0,8.5,50,0.00,,,0.00,WUHU216PEETBRO,2013-07-27 18:03:00,
2013-07-27 14:08:00,92.9,72.2,29.97,North,8,0.0,7.0,51,0.00,,,0.00,WUHU216PEETBRO,2013-07-27 18:08:00,
2013-07-27 14:13:00,93.8,72.1,29.97,NNW,327,5.7,6.7,49,0.00,,,0.00,WUHU216PEETBRO,2013-07-27 18:13:00,
2013-07-27 14:18:00,94.4,70.5,29.97,West,271,4.3,7.3,46,0.00,,,0.00,WUHU216PEETBRO,2013-07-27 18:18:00,
2013-07-27 14:23:00,95.0,71.1,29.96,WNW,296,6.1,7.3,46,0.00,,,0.00,WUHU216PEETBRO,2013-07-27 18:23:00,
2013-07-27 14:28:00,96.3,70.9,29.96,North,354,0.0,6.6,44,0.00,,,0.00,WUHU216PEETBRO,2013-07-27 18:28:00,
2013-07-27 14:33:00,95.8,70.6,29.96,NE,40,0.0,6.2,44,0.00,,,0.00,WUHU216PEETBRO,2013-07-27 18:33:00,
2013-07-27 14:38:00,95.1,70.9,29.96,SE,139,5.7,7.6,46,0.00,,,0.00,WUHU216PEETBRO,2013-07-27 18:38:00,
2013-07-27 14:43:00,95.9,70.7,29.96,NW,314,0.0,7.8,44,0.00,,,0.00,WUHU216PEETBRO,2013-07-27 18:43:00,
2013-07-27 14:48:00,96.4,70.8,29.96,NNW,330,4.4,7.8,44,0.00,,,0.00,WUHU216PEETBRO,2013-07-27 18:48:00,
2013-07-27 14:53:00,96.5,71.2,29.96,NNE,33,2.4,5.0,44,0.00,,,0.00,WUHU216PEETBRO,2013-07-27 18:53:00,
2013-07-27 14:58:00,95.1,72.0,29.96,SW,221,0.0,7.5,47,0.00,,,0.00,WUHU216PEETBRO,2013-07-27 18:58:00,
2013-07-27 15:03:00,94.2,72.0,29.95,NE,55,0.0,7.5,49,0.00,,,0.00,WUHU216PEETBRO,2013-07-27 19:03:00,
2013-07-27 15:08:00,93.1,71.9,29.95,SSE,160,7.2,8.6,50,0.00,,,0.00,WUHU216PEETBRO,2013-07-27 19:08:00,
2013-07-27 15:13:00,91.9,71.6,29.95,ESE,119,0.0,8.6,51,0.00,,,0.00,WUHU216PEETBRO,2013-07-27 19:13:00,
2013-07-27 15:18:00,91.2,71.4,29.95,SSE,158,4.6,7.3,52,0.00,,,0.00,WUHU216PEETBRO,2013-07-27 19:18:00,
2013-07-27 15:23:00,90.7,71.3,29.95,SE,142,0.0,5.7,53,0.00,,,0.00,WUHU216PEETBRO,2013-07-27 19:23:00,
2013-07-27 15:28:00,90.8,71.3,29.94,SE,127,3.1,3.2,53,0.00,,,0.00,WUHU216PEETBRO,2013-07-27 19:28:00,
2013-07-27 15:33:00,90.7,71.4,29.94,SE,135,0.0,4.3,53,0.00,,,0.00,WUHU216PEETBRO,2013-07-27 19:33:00,
2013-07-27 15:38:00,90.4,71.2,29.94,SE,138,0.0,5.5,53,0.00,,,0.00,WUHU216PEETBRO,2013-07-27 19:38:00,
2013-07-27 15:43:00,90.4,71.3,29.93,ENE,77,0.0,5.5,53,0.00,,,0.00,WUHU216PEETBRO,2013-07-27 19:43:00,
2013-07-27 15:48:00,90.4,71.3,29.94,East,100,5.0,5.3,53,0.00,,,0.00,WUHU216PEETBRO,2013-07-27 19:48:00,
2013-07-27 15:53:00,90.0,72.3,29.94,ESE,108,0.0,6.8,56,0.00,,,0.00,WUHU216PEETBRO,2013-07-27 19:53:00,
2013-07-27 15:58:00,89.3,74.3,29.95,SE,138,3.1,6.8,61,0.00,,,0.00,WUHU216PEETBRO,2013-07-27 19:58:00,
2013-07-27 16:03:00,88.2,76.4,29.95,SSW,193,5.7,8.3,68,0.01,,,0.01,WUHU216PEETBRO,2013-07-27 20:03:00,
2013-07-27 16:08:00,87.0,77.8,29.95,SW,224,7.5,8.9,74,0.03,,,0.03,WUHU216PEETBRO,2013-07-27 20:08:00,
2013-07-27 16:13:00,85.4,78.3,29.95,SE,131,4.3,10.5,79,0.09,,,0.09,WUHU216PEETBRO,2013-07-27 20:13:00,
2013-07-27 16:18:00,83.5,77.4,29.95,South,169,0.0,10.5,82,0.14,,,0.14,WUHU216PEETBRO,2013-07-27 20:18:00,
2013-07-27 16:23:00,82.5,78.0,29.95,SW,225,0.0,10.5,86,0.14,,,0.14,WUHU216PEETBRO,2013-07-27 20:23:00,
2013-07-27 16:28:00,80.5,76.3,29.94,SSW,208,8.7,9.8,87,0.14,,,0.14,WUHU216PEETBRO,2013-07-27 20:28:00,
2013-07-27 16:33:00,79.8,75.6,29.94,WNW,286,5.8,15.7,87,0.15,,,0.15,WUHU216PEETBRO,2013-07-27 20:33:00,
2013-07-27 16:38:00,79.4,75.7,29.94,West,276,0.0,15.7,88,0.16,,,0.16,WUHU216PEETBRO,2013-07-27 20:38:00,
2013-07-27 16:43:00,79.3,76.0,29.94,NNW,337,6.9,10.8,90,0.16,,,0.16,WUHU216PEETBRO,2013-07-27 20:43:00,
2013-07-27 16:48:00,79.2,76.1,29.94,NW,307,0.0,10.8,90,0.17,,,0.17,WUHU216PEETBRO,2013-07-27 20:48:00,
2013-07-27 16:53:00,79.3,76.4,29.93,NW,309,0.0,6.8,91,0.17,,,0.17,WUHU216PEETBRO,2013-07-27 20:53:00,
2013-07-27 16:58:00,79.4,76.7,29.92,NW,311,0.0,5.2,92,0.17,,,0.17,WUHU216PEETBRO,2013-07-27 20:58:00,
2013-07-27 17:03:00,79.7,77.1,29.93,NW,311,0.0,4.3,92,0.16,,,0.17,WUHU216PEETBRO,2013-07-27 21:03:00,
2013-07-27 17:08:00,79.8,77.2,29.95,North,8,7.1,10.0,92,0.14,,,0.17,WUHU216PEETBRO,2013-07-27 21:08:00,
2013-07-27 17:13:00,79.7,77.0,29.97,NE,46,5.7,12.9,91,0.07,,,0.17,WUHU216PEETBRO,2013-07-27 21:13:00,
2013-07-27 17:18:00,79.3,76.6,29.98,NNE,23,0.0,12.9,92,0.03,,,0.17,WUHU216PEETBRO,2013-07-27 21:18:00,
2013-07-27 17:23:00,79.0,76.6,29.98,East,81,9.9,10.4,92,0.03,,,0.17,WUHU216PEETBRO,2013-07-27 21:23:00,
2013-07-27 17:28:00,78.3,76.2,29.98,NE,49,7.3,10.4,93,0.03,,,0.17,WUHU216PEETBRO,2013-07-27 21:28:00,
2013-07-27 17:33:00,78.3,76.4,29.98,ESE,110,4.2,10.1,94,0.02,,,0.17,WUHU216PEETBRO,2013-07-27 21:33:00,
2013-07-27 17:38:00,78.2,76.4,29.97,ENE,67,7.1,11.5,94,0.01,,,0.17,WUHU216PEETBRO,2013-07-27 21:38:00,
2013-07-27 17:43:00,78.3,76.5,29.98,NE,43,0.0,11.5,94,0.01,,,0.17,WUHU216PEETBRO,2013-07-27 21:43:00,
2013-07-27 17:48:00,78.4,76.7,29.98,NNE,33,0.0,9.1,95,0.00,,,0.17,WUHU216PEETBRO,2013-07-27 21:48:00,
2013-07-27 17:53:00,78.3,76.5,29.97,NE,38,0.0,6.3,94,0.00,,,0.17,WUHU216PEETBRO,2013-07-27 21:53:00,
2013-07-27 17:58:00,78.4,76.6,29.97,SSE,149,0.0,7.9,94,0.00,,,0.17,WUHU216PEETBRO,2013-07-27 21:58:00,
2013-07-27 18:03:00,78.3,76.4,29.97,NE,38,4.4,7.9,94,0.00,,,0.17,WUHU216PEETBRO,2013-07-27 22:03:00,
2013-07-27 18:08:00,78.4,76.4,29.97,ENE,71,6.9,11.4,94,0.00,,,0.17,WUHU216PEETBRO,2013-07-27 22:08:00,
2013-07-27 18:13:00,78.4,76.3,29.97,ENE,60,5.5,11.4,93,0.00,,,0.17,WUHU216PEETBRO,2013-07-27 22:13:00,
2013-07-27 18:18:00,78.8,76.7,29.97,NE,52,4.2,10.7,93,0.00,,,0.17,WUHU216PEETBRO,2013-07-27 22:18:00,
2013-07-27 18:23:00,78.4,76.1,29.98,NE,47,7.0,10.7,93,0.00,,,0.17,WUHU216PEETBRO,2013-07-27 22:23:00,
2013-07-27 18:28:00,78.7,76.3,29.98,North,5,4.5,9.1,92,0.00,,,0.17,WUHU216PEETBRO,2013-07-27 22:28:00,
2013-07-27 18:33:00,78.7,76.1,29.98,NE,46,4.7,9.1,92,0.00,,,0.17,WUHU216PEETBRO,2013-07-27 22:33:00,
2013-07-27 18:38:00,78.7,76.0,29.97,NNE,16,0.0,8.4,92,0.00,,,0.17,WUHU216PEETBRO,2013-07-27 22:38:00,
2013-07-27 18:43:00,78.8,75.9,29.97,NE,36,0.0,8.4,91,0.00,,,0.17,WUHU216PEETBRO,2013-07-27 22:43:00,
2013-07-27 18:48:00,79.0,75.9,29.97,NNE,26,3.5,6.8,90,0.00,,,0.17,WUHU216PEETBRO,2013-07-27 22:48:00,
2013-07-27 18:53:00,79.2,75.9,29.97,NE,45,0.0,6.8,90,0.00,,,0.17,WUHU216PEETBRO,2013-07-27 22:53:00,
2013-07-27 18:58:00,79.4,75.9,29.97,ENE,74,3.4,8.6,89,0.00,,,0.17,WUHU216PEETBRO,2013-07-27 22:58:00,
2013-07-27 19:03:00,79.5,75.8,29.97,ENE,64,4.7,8.6,89,0.00,,,0.17,WUHU216PEETBRO,2013-07-27 23:03:00,
2013-07-27 19:08:00,79.8,76.0,29.98,NE,45,0.0,8.3,88,0.00,,,0.17,WUHU216PEETBRO,2013-07-27 23:08:00,
2013-07-27 19:13:00,80.0,76.0,29.97,North,359,0.0,6.4,88,0.00,,,0.17,WUHU216PEETBRO,2013-07-27 23:13:00,
2013-07-27 19:18:00,80.2,76.0,29.97,ENE,59,3.4,6.8,87,0.00,,,0.17,WUHU216PEETBRO,2013-07-27 23:18:00,
2013-07-27 19:23:00,80.2,75.7,29.97,ENE,62,0.0,6.8,86,0.00,,,0.17,WUHU216PEETBRO,2013-07-27 23:23:00,
2013-07-27 19:28:00,80.0,75.8,29.97,East,98,5.3,5.6,87,0.00,,,0.17,WUHU216PEETBRO,2013-07-27 23:28:00,
2013-07-27 19:33:00,79.9,76.0,29.97,ESE,110,4.2,5.3,88,0.00,,,0.17,WUHU216PEETBRO,2013-07-27 23:33:00,
2013-07-27 19:38:00,80.0,76.3,29.97,North,359,0.0,7.1,89,0.00,,,0.17,WUHU216PEETBRO,2013-07-27 23:38:00,
2013-07-27 19:43:00,80.0,76.2,29.97,North,359,0.0,7.1,88,0.00,,,0.17,WUHU216PEETBRO,2013-07-27 23:43:00,
2013-07-27 19:48:00,79.9,76.1,29.97,North,359,0.0,2.7,88,0.00,,,0.17,WUHU216PEETBRO,2013-07-27 23:48:00,
2013-07-27 19:53:00,80.0,76.3,29.98,NE,50,0.0,4.5,88,0.00,,,0.17,WUHU216PEETBRO,2013-07-27 23:53:00,
2013-07-27 19:58:00,79.9,76.2,29.98,NE,50,0.0,4.5,88,0.00,,,0.17,WUHU216PEETBRO,2013-07-27 23:58:00,
2013-07-27 20:03:00,79.9,76.3,29.98,NE,50,0.0,0.0,89,0.00,,,0.17,WUHU216PEETBRO,2013-07-28 00:03:00,
2013-07-27 20:08:00,79.8,76.3,29.97,NE,50,0.0,0.0,89,0.00,,,0.17,WUHU216PEETBRO,2013-07-28 00:08:00,
2013-07-27 20:13:00,79.7,76.3,29.98,NE,50,0.0,0.0,89,0.00,,,0.17,WUHU216PEETBRO,2013-07-28 00:13:00,
2013-07-27 20:18:00,79.5,76.2,29.98,NE,56,2.4,3.2,90,0.00,,,0.17,WUHU216PEETBRO,2013-07-28 00:18:00,
2013-07-27 20:23:00,79.3,76.2,29.98,East,88,0.0,4.4,90,0.00,,,0.17,WUHU216PEETBRO,2013-07-28 00:23:00,
2013-07-27 20:28:00,79.3,76.4,29.98,SE,132,3.4,5.5,91,0.00,,,0.17,WUHU216PEETBRO,2013-07-28 00:28:00,
2013-07-27 20:33:00,79.1,76.3,29.98,SE,124,0.0,6.2,91,0.00,,,0.17,WUHU216PEETBRO,2013-07-28 00:33:00,
2013-07-27 20:38:00,79.0,76.3,29.98,East,86,4.7,6.2,92,0.00,,,0.17,WUHU216PEETBRO,2013-07-28 00:38:00,
2013-07-27 20:43:00,79.0,76.3,29.98,SE,125,6.8,8.0,92,0.00,,,0.17,WUHU216PEETBRO,2013-07-28 00:43:00,
2013-07-27 20:48:00,78.7,76.0,29.98,ESE,117,0.0,8.0,91,0.00,,,0.17,WUHU216PEETBRO,2013-07-28 00:48:00,
2013-07-27 20:53:00,78.7,75.9,29.98,East,86,4.7,6.4,91,0.00,,,0.17,WUHU216PEETBRO,2013-07-28 00:53:00,
2013-07-27 20:58:00,78.5,75.7,29.98,East,81,0.0,6.2,91,0.00,,,0.17,WUHU216PEETBRO,2013-07-28 00:58:00,
2013-07-27 21:03:00,78.5,75.6,29.98,East,81,0.0,4.8,91,0.00,,,0.17,WUHU216PEETBRO,2013-07-28 01:03:00,
2013-07-27 21:08:00,78.7,75.8,29.98,East,81,0.0,0.0,91,0.00,,,0.17,WUHU216PEETBRO,2013-07-28 01:08:00,
2013-07-27 21:13:00,78.8,75.9,29.98,NE,49,0.0,3.5,91,0.00,,,0.17,WUHU216PEETBRO,2013-07-28 01:13:00,
2013-07-27 21:18:00,78.8,75.8,29.98,NE,49,0.0,3.5,91,0.00,,,0.17,WUHU216PEETBRO,2013-07-28 01:18:00,
2013-07-27 21:23:00,78.7,75.7,29.98,NE,49,0.0,2.6,91,0.00,,,0.17,WUHU216PEETBRO,2013-07-28 01:23:00,
2013-07-27 21:28:00,78.7,75.6,29.98,SE,136,0.0,4.3,90,0.00,,,0.17,WUHU216PEETBRO,2013-07-28 01:28:00,
2013-07-27 21:33:00,78.7,75.6,29.99,SE,136,0.0,4.3,90,0.00,,,0.17,WUHU216PEETBRO,2013-07-28 01:33:00,
2013-07-27 21:38:00,78.8,75.7,29.99,SE,136,0.0,0.0,90,0.00,,,0.17,WUHU216PEETBRO,2013-07-28 01:38:00,
2013-07-27 21:43:00,78.9,75.7,29.99,ENE,57,3.2,4.9,90,0.00,,,0.17,WUHU216PEETBRO,2013-07-28 01:43:00,
2013-07-27 21:48:00,79.1,75.8,29.98,ESE,110,8.4,8.4,90,0.00,,,0.17,WUHU216PEETBRO,2013-07-28 01:48:00,
2013-07-27 21:53:00,79.3,75.7,29.98,SE,134,8.8,11.6,89,0.00,,,0.17,WUHU216PEETBRO,2013-07-28 01:53:00,
2013-07-27 21:58:00,79.0,75.8,29.99,SE,128,0.0,11.6,90,0.00,,,0.17,WUHU216PEETBRO,2013-07-28 01:58:00,
2013-07-27 22:03:00,78.8,75.8,29.99,ESE,107,5.5,10.0,91,0.00,,,0.17,WUHU216PEETBRO,2013-07-28 02:03:00,
2013-07-27 22:08:00,78.2,75.6,29.99,East,81,2.9,10.9,92,0.00,,,0.17,WUHU216PEETBRO,2013-07-28 02:08:00,
2013-07-27 22:13:00,78.1,75.6,29.99,SSE,155,7.8,11.6,92,0.00,,,0.17,WUHU216PEETBRO,2013-07-28 02:13:00,
2013-07-27 22:18:00,78.1,75.8,30.00,SE,146,4.8,11.6,93,0.00,,,0.17,WUHU216PEETBRO,2013-07-28 02:18:00,
2013-07-27 22:23:00,78.1,75.9,30.00,SSE,167,5.0,12.2,93,0.00,,,0.17,WUHU216PEETBRO,2013-07-28 02:23:00,
2013-07-27 22:28:00,78.0,75.8,30.00,South,172,7.1,12.2,93,0.00,,,0.17,WUHU216PEETBRO,2013-07-28 02:28:00,
2013-07-27 22:33:00,78.1,75.9,30.00,SSE,148,0.0,9.0,93,0.00,,,0.17,WUHU216PEETBRO,2013-07-28 02:33:00,
2013-07-27 22:38:00,78.2,76.0,30.00,SE,136,7.4,9.0,93,0.00,,,0.17,WUHU216PEETBRO,2013-07-28 02:38:00,
2013-07-27 22:43:00,78.2,76.1,30.00,SSE,159,0.0,9.0,93,0.00,,,0.17,WUHU216PEETBRO,2013-07-28 02:43:00,
2013-07-27 22:48:00,78.3,76.1,30.01,SE,127,0.0,7.2,93,0.00,,,0.17,WUHU216PEETBRO,2013-07-28 02:48:00,
2013-07-27 22:53:00,78.2,76.1,30.01,SE,132,0.0,7.8,93,0.00,,,0.17,WUHU216PEETBRO,2013-07-28 02:53:00,
2013-07-27 22:58:00,78.1,76.1,30.01,SE,127,5.0,8.9,94,0.00,,,0.17,WUHU216PEETBRO,2013-07-28 02:58:00,
2013-07-27 23:03:00,78.1,76.2,30.01,SSE,152,4.7,8.9,94,0.00,,,0.17,WUHU216PEETBRO,2013-07-28 03:03:00,
2013-07-27 23:08:00,78.1,76.3,30.01,SE,142,0.0,7.7,94,0.00,,,0.17,WUHU216PEETBRO,2013-07-28 03:08:00,
2013-07-27 23:13:00,78.0,76.2,30.01,SE,142,6.2,7.7,94,0.00,,,0.17,WUHU216PEETBRO,2013-07-28 03:13:00,
2013-07-27 23:18:00,78.0,76.3,30.01,SSE,159,0.0,9.8,95,0.00,,,0.17,WUHU216PEETBRO,2013-07-28 03:18:00,
2013-07-27 23:23:00,78.0,76.3,30.01,SE,127,0.0,9.8,95,0.00,,,0.17,WUHU216PEETBRO,2013-07-28 03:23:00,
2013-07-27 23:28:00,78.1,76.4,30.01,SE,127,0.0,4.2,95,0.00,,,0.17,WUHU216PEETBRO,2013-07-28 03:28:00,
2013-07-27 23:33:00,78.0,76.3,30.01,SE,127,0.0,0.0,95,0.00,,,0.17,WUHU216PEETBRO,2013-07-28 03:33:00,
2013-07-27 23:38:00,78.1,76.4,30.01,ESE,105,0.0,7.2,95,0.00,,,0.17,WUHU216PEETBRO,2013-07-28 03:38:00,
2013-07-27 23:43:00,78.1,76.4,30.00,ESE,105,0.0,7.2,95,0.00,,,0.17,WUHU216PEETBRO,2013-07-28 03:43:00,
2013-07-27 23:48:00,78.0,76.4,30.00,ESE,105,0.0,0.0,95,0.00,,,0.17,WUHU216PEETBRO,2013-07-28 03:48:00,
2013-07-27 23:53:00,78.0,76.4,30.01,SSE,160,0.0,2.4,95,0.00,,,0.17,WUHU216PEETBRO,2013-07-28 03:53:00,
2013-07-27 23:58:00,78.0,76.4,30.01,SE,132,0.0,4.9,95,0.00,,,0.17,WUHU216PEETBRO,2013-07-28 03:58:00,